Weather History for Lee's Summit, MO

Change the Weather History Date:

Friday, November 2, 2012

  Actual Average (KMKC) Record (KMKC)
Temperature  
Mean Temperature 52 °F -  
Max Temperature 63 °F 57 °F 77 °F (2008)
Min Temperature 41 °F 41 °F 28 °F (2006)
Degree Days  
Heating Degree Days 13    
Growing Degree Days 2 (Base 50)    
Moisture  
Dew Point 35 °F    
Average Humidity 55    
Maximum Humidity 76    
Minimum Humidity 39    
Precipitation  
Precipitation 0.00 in - - ()
Sea Level Pressure  
Sea Level Pressure 29.95 in    
Wind  
Wind Speed 10 mph (ENE)    
Max Wind Speed 14 mph    
Max Gust Speed 21 mph    
Visibility 10 miles    
Events      
Averages and records for this station are not official NWS values.
T = Trace of Precipitation, MM = Missing Value Source: NWS Daily Summary

Daily Weather History Graph

Daily Weather History Graph

Search for Another Location

Airport:

Trip Planner

Search our weather history database for the weather conditions in past years. The results will help you decide how hot, cold, wet, or windy it might be!

Date:

Astronomy

Nov. 02, 2012 Rise Set
Actual Time 7:46 AM CDT 6:15 PM CDT
Civil Twilight 7:18 AM CDT 6:42 PM CDT
Nautical Twilight 6:47 AM CDT 7:14 PM CDT
Astronomical Twilight 6:15 AM CDT 7:45 PM CDT
Moon 9:04 PM CDT (11/2) 11:06 AM CDT (11/2)
Length of Visible Light 11h 24m
Length of Day
10h 28m
Waning Gibbous, 87% of the Moon is Illuminated
Nov 2
Waning Gibbous
Nov 6
Last Quarter
Nov 13
New
Nov 20
First Quarter
Nov 28
Full

Hourly Weather History & Observations

Time (CDT) Temp. Windchill Dew Point Humidity Pressure Visibility Wind Dir Wind Speed Gust Speed Precip Events Conditions
12:53 AM 50.0 °F - 39.9 °F 68% 29.97 in 10.0 mi NE 6.9 mph - N/A   Clear
1:53 AM 50.0 °F - 39.0 °F 66% 29.97 in 10.0 mi ENE 8.1 mph - N/A   Clear
2:53 AM 48.0 °F - 37.0 °F 66% 29.96 in 10.0 mi ENE 10.4 mph - N/A   Clear
3:53 AM 46.9 °F - 36.0 °F 66% 29.97 in 10.0 mi ENE 10.4 mph - N/A   Clear
4:53 AM 45.0 °F 40.1 °F 36.0 °F 71% 29.99 in 10.0 mi ENE 9.2 mph - N/A   Clear
5:53 AM 42.1 °F 37.1 °F 35.1 °F 76% 29.99 in 10.0 mi East 8.1 mph - N/A   Clear
6:53 AM 42.1 °F 37.1 °F 34.0 °F 73% 30.00 in 10.0 mi East 8.1 mph - N/A   Clear
7:53 AM 41.0 °F 35.2 °F 33.1 °F 73% 30.00 in 10.0 mi East 9.2 mph - N/A   Clear
8:53 AM 43.0 °F 37.7 °F 34.0 °F 71% 30.00 in 10.0 mi East 9.2 mph - N/A   Clear
9:53 AM 48.0 °F - 35.1 °F 61% 30.00 in 10.0 mi East 13.8 mph - N/A   Clear
10:53 AM 51.1 °F - 33.1 °F 50% 29.99 in 10.0 mi ESE 11.5 mph - N/A   Clear
11:53 AM 54.0 °F - 34.0 °F 47% 29.99 in 10.0 mi ESE 8.1 mph - N/A   Clear
12:53 PM 57.9 °F - 35.1 °F 42% 29.95 in 10.0 mi ESE 10.4 mph 19.6 mph N/A   Clear
1:53 PM 61.0 °F - 36.0 °F 39% 29.91 in 10.0 mi East 11.5 mph - N/A   Clear
2:53 PM 62.1 °F - 37.0 °F 39% 29.89 in 10.0 mi East 12.7 mph 20.7 mph N/A   Clear
3:53 PM 63.0 °F - 37.9 °F 40% 29.88 in 10.0 mi East 13.8 mph - N/A   Clear
4:53 PM 60.1 °F - 36.0 °F 41% 29.88 in 10.0 mi East 13.8 mph - N/A   Clear
5:53 PM 57.0 °F - 35.1 °F 44% 29.89 in 10.0 mi ENE 8.1 mph - N/A   Clear
6:53 PM 55.0 °F - 35.1 °F 47% 29.91 in 10.0 mi ENE 9.2 mph - N/A   Clear
7:53 PM 54.0 °F - 33.1 °F 45% 29.92 in 10.0 mi NE 10.4 mph - N/A   Clear
8:53 PM 52.0 °F - 30.9 °F 45% 29.93 in 10.0 mi NNE 12.7 mph - N/A   Clear
9:53 PM 50.0 °F - 32.0 °F 50% 29.93 in 10.0 mi NE 13.8 mph - N/A   Clear
10:53 PM 48.9 °F - 33.1 °F 54% 29.93 in 10.0 mi NE 12.7 mph - N/A   Clear
11:53 PM 48.0 °F - 33.1 °F 56% 29.93 in 10.0 mi NE 11.5 mph - N/A   Clear